Location: Charbonni�res
(45.9952°N, 2.9982°E)
Time: 17:42:46
(UTC+00:00)

ASTRO F (AKARI) - Pass Details

Date: 29 November 2020
Orbit: 398 x 519 km, 98.2° (Epoch: 17 January)

Event Time Altitude Azimuth Distance (km) Brightness Sun altitude
Rises 05:37:38 0° 12° (NNE) 2,322 8.0 -15.1°
Reaches altitude 10° 05:39:36 10° 11° (N) 1,462 6.9 -14.8°
Maximum altitude 05:42:42 77° 285° (WNW) 421 4.0 -14.3°
Drops below altitude 10° 05:45:50 10° 199° (SSW) 1,477 7.0 -13.8°
Sets 05:47:50 0° 198° (SSW) 2,349 8.0 -13.4°
